Emporia, VA

4:35 PM EDT on May 28, 2017 (GMT -0400)
Emporia-Greensville Regional

Weather History for KEMV - January, 2014

Change the Weather History Date:

Thursday, January 23, 2014

  Actual Average Record
Temperature  
Mean Temperature 20 °F -  
Max Temperature 32 °F 47 °F 70 °F (1986)
Min Temperature 8 °F 24 °F 8 °F (2014)
Degree Days  
Heating Degree Days 45    
Moisture  
Dew Point 8 °F    
Average Humidity 59    
Maximum Humidity 93    
Minimum Humidity 34    
Precipitation  
Precipitation 0.00 in - - ()
Sea Level Pressure  
Sea Level Pressure 30.27 in    
Wind  
Wind Speed 3 mph (West)    
Max Wind Speed 16 mph    
Max Gust Speed 23 mph    
Visibility 10 miles    
Events      
Averages and records for this station are not official NWS values.
T = Trace of Precipitation, MM = Missing Value Source: NWS Daily Summary

Daily Weather History Graph

Daily Weather History Graph

Search for Another Location

Airport or City:

Trip Planner

Search our weather history database for the weather conditions in past years. The results will help you decide how hot, cold, wet, or windy it might be!

Date:

Astronomy

Jan. 23, 2014 Rise Set
Actual Time 7:17 AM EST 5:25 PM EST
Civil Twilight 6:50 AM EST 5:53 PM EST
Nautical Twilight 6:18 AM EST 6:25 PM EST
Astronomical Twilight 5:48 AM EST 6:55 PM EST
Moon No Moon Rise 11:04 AM EST (1/23)
Length of Visible Light 11h 03m
Length of Day
10h 07m
Waning Gibbous, 55% of the Moon is Illuminated
Jan 23
Waning Gibbous
Jan 24
Last Quarter
Jan 30
New
Feb 6
First Quarter
Feb 14
Full

Hourly Weather History & Observations

Time (EST) Temp. Windchill Dew Point Humidity Pressure Visibility Wind Dir Wind Speed Gust Speed Precip Events Conditions
12:15 AM 14.0 °F - 12.2 °F 93% 30.14 in 10.0 mi Calm Calm - N/A   Overcast
12:35 AM 14.0 °F - 12.2 °F 93% 30.14 in 10.0 mi Calm Calm - N/A   Overcast
12:55 AM 15.8 °F - 12.2 °F 86% 30.13 in 10.0 mi Calm Calm - N/A   Overcast
1:15 AM 15.8 °F - 12.2 °F 86% 30.12 in 10.0 mi Calm Calm - N/A   Overcast
1:35 AM 15.8 °F - 12.2 °F 86% 30.13 in 10.0 mi Calm Calm - N/A   Overcast
1:55 AM 15.8 °F - 10.4 °F 79% 30.14 in 10.0 mi Calm Calm - N/A   Overcast
2:15 AM 12.2 °F - 8.6 °F 85% 30.15 in 10.0 mi Calm Calm - N/A   Overcast
2:35 AM 12.2 °F - 10.4 °F 92% 30.16 in 10.0 mi Calm Calm - N/A   Overcast
2:55 AM 15.8 °F - 12.2 °F 86% 30.17 in 10.0 mi Calm Calm - N/A   Overcast
3:15 AM 14.0 °F - 10.4 °F 86% 30.17 in 10.0 mi Calm Calm - N/A   Overcast
3:35 AM 14.0 °F - 10.4 °F 86% 30.17 in 10.0 mi Calm Calm - N/A   Overcast
3:55 AM 14.0 °F - 10.4 °F 86% 30.17 in 10.0 mi Calm Calm - N/A   Overcast
4:15 AM 15.8 °F - 12.2 °F 86% 30.18 in 10.0 mi Calm Calm - N/A   Overcast
4:35 AM 14.0 °F - 12.2 °F 93% 30.19 in 10.0 mi Calm Calm - N/A   Overcast
4:55 AM 14.0 °F - 12.2 °F 93% 30.19 in 10.0 mi Calm Calm - N/A   Overcast
5:15 AM 12.2 °F - 10.4 °F 92% 30.20 in 10.0 mi Calm Calm - N/A   Mostly Cloudy
5:35 AM 12.2 °F - 10.4 °F 92% 30.21 in 10.0 mi Calm Calm - N/A   Scattered Clouds
5:55 AM 10.4 °F - 8.6 °F 92% 30.21 in 10.0 mi Calm Calm - N/A   Clear
6:15 AM 10.4 °F - 8.6 °F 92% 30.23 in 10.0 mi Calm Calm - N/A   Clear
6:35 AM 10.4 °F - 8.6 °F 92% 30.23 in 10.0 mi Calm Calm - N/A   Clear
6:55 AM 12.2 °F - 10.4 °F 92% 30.23 in 10.0 mi Calm Calm - N/A   Clear
7:15 AM 10.4 °F - 8.6 °F 92% 30.24 in 10.0 mi Calm Calm - N/A   Clear
7:35 AM 8.6 °F 2.0 °F 6.8 °F 92% 30.25 in 3.0 mi ESE 3.5 mph - N/A   Clear
7:55 AM 10.4 °F - 6.8 °F 85% 30.24 in 10.0 mi Calm Calm - N/A   Clear
8:15 AM 14.0 °F - 12.2 °F 93% 30.25 in 10.0 mi Calm Calm - N/A   Clear
8:35 AM 17.6 °F - 14.0 °F 86% 30.25 in 10.0 mi Calm Calm - N/A   Clear
8:55 AM 19.4 °F - 12.2 °F 74% 30.27 in 10.0 mi Calm Calm - N/A   Clear
9:15 AM 23.0 °F - 12.2 °F 63% 30.26 in 10.0 mi Calm Calm - N/A   Clear
9:35 AM 26.6 °F 22.6 °F 10.4 °F 51% 30.27 in 10.0 mi WSW 3.5 mph - N/A   Clear
9:55 AM 26.6 °F 17.5 °F 8.6 °F 47% 30.28 in 10.0 mi WSW 9.2 mph - N/A   Clear
10:15 AM 28.4 °F 20.4 °F 8.6 °F 43% 30.29 in 10.0 mi WSW 8.1 mph - N/A   Clear
10:35 AM 28.4 °F 22.2 °F 8.6 °F 43% 30.30 in 10.0 mi West 5.8 mph - N/A   Clear
10:55 AM 30.2 °F 21.9 °F 8.6 °F 40% 30.29 in 10.0 mi West 9.2 mph - N/A   Clear
11:15 AM 30.2 °F 24.3 °F 8.6 °F 40% 30.28 in 10.0 mi WSW 5.8 mph - N/A   Clear
11:35 AM 30.2 °F 24.3 °F 8.6 °F 40% 30.28 in 10.0 mi West 5.8 mph 18.4 mph N/A   Clear
11:55 AM 30.2 °F 21.9 °F 8.6 °F 40% 30.27 in 10.0 mi WSW 9.2 mph 16.1 mph N/A   Clear
12:15 PM 32.0 °F 24.2 °F 8.6 °F 38% 30.26 in 10.0 mi WSW 9.2 mph 16.1 mph N/A   Clear
12:35 PM 32.0 °F 23.6 °F 8.6 °F 38% 30.25 in 10.0 mi WSW 10.4 mph 17.3 mph N/A   Clear
12:55 PM 32.0 °F 22.5 °F 8.6 °F 38% 30.24 in 10.0 mi WSW 12.7 mph 17.3 mph N/A   Clear
1:15 PM 32.0 °F 22.5 °F 8.6 °F 38% 30.24 in 10.0 mi SW 12.7 mph 23.0 mph N/A   Clear
1:35 PM 32.0 °F 23.0 °F 8.6 °F 38% 30.24 in 10.0 mi WSW 11.5 mph 17.3 mph N/A   Clear
1:55 PM 32.0 °F 25.6 °F 8.6 °F 38% 30.23 in 10.0 mi West 6.9 mph - N/A   Clear
2:15 PM 32.0 °F 24.8 °F 8.6 °F 38% 30.23 in 10.0 mi WSW 8.1 mph - N/A   Clear
2:35 PM 32.0 °F 25.6 °F 10.4 °F 41% 30.23 in 10.0 mi WSW 6.9 mph - N/A   Clear
2:55 PM 32.0 °F 24.2 °F 10.4 °F 41% 30.24 in 10.0 mi SW 9.2 mph 16.1 mph N/A   Clear
3:15 PM 32.0 °F 23.6 °F 8.6 °F 38% 30.25 in 10.0 mi West 10.4 mph 17.3 mph N/A   Clear
3:35 PM 32.0 °F 25.6 °F 10.4 °F 41% 30.26 in 10.0 mi West 6.9 mph 18.4 mph N/A   Clear
3:55 PM 32.0 °F 25.6 °F 10.4 °F 41% 30.27 in 10.0 mi West 6.9 mph 17.3 mph N/A   Clear
4:15 PM 32.0 °F 23.6 °F 10.4 °F 41% 30.28 in 10.0 mi West 10.4 mph - N/A   Clear
4:35 PM 32.0 °F 25.6 °F 10.4 °F 41% 30.28 in 10.0 mi West 6.9 mph - N/A   Clear
4:55 PM 32.0 °F 26.4 °F 10.4 °F 41% 30.29 in 10.0 mi West 5.8 mph - N/A   Clear
5:15 PM 32.0 °F 26.4 °F 10.4 °F 41% 30.30 in 10.0 mi West 5.8 mph - N/A   Clear
5:35 PM 30.2 °F 26.7 °F 10.4 °F 44% 30.31 in 10.0 mi West 3.5 mph - N/A   Clear
5:55 PM 30.2 °F 26.7 °F 10.4 °F 44% 30.32 in 10.0 mi WSW 3.5 mph - N/A   Scattered Clouds
6:15 PM 30.2 °F 26.7 °F 10.4 °F 44% 30.33 in 10.0 mi WNW 3.5 mph - N/A   Scattered Clouds
6:35 PM 28.4 °F 21.2 °F 10.4 °F 47% 30.34 in 10.0 mi WNW 6.9 mph - N/A   Scattered Clouds
6:55 PM 28.4 °F 23.3 °F 8.6 °F 43% 30.36 in 10.0 mi WNW 4.6 mph - N/A   Scattered Clouds
7:15 PM 28.4 °F 18.0 °F 5.0 °F 37% 30.36 in 10.0 mi WNW 12.7 mph 18.4 mph N/A   Clear
7:35 PM 28.4 °F 18.0 °F 3.2 °F 34% 30.37 in 10.0 mi WNW 12.7 mph - N/A   Clear
7:55 PM 26.6 °F 17.5 °F 1.4 °F 34% 30.38 in 10.0 mi WNW 9.2 mph - N/A   Clear
8:15 PM 26.6 °F 15.7 °F 1.4 °F 34% 30.39 in 10.0 mi WNW 12.7 mph 17.3 mph N/A   Clear
8:35 PM 24.8 °F 11.9 °F 3.2 °F 40% 30.39 in 10.0 mi NW 16.1 mph 19.6 mph N/A   Clear
8:55 PM 24.8 °F 13.4 °F -0.4 °F 34% 30.40 in 10.0 mi WNW 12.7 mph 17.3 mph N/A   Clear
9:35 PM 23.0 °F 10.1 °F -0.4 °F 36% 30.42 in 10.0 mi WNW 15.0 mph 21.9 mph N/A   Clear
9:55 PM 23.0 °F 13.9 °F -0.4 °F 36% 30.43 in 10.0 mi WNW 8.1 mph 17.3 mph N/A   Clear
10:15 PM 23.0 °F 13.9 °F -0.4 °F 36% 30.44 in 10.0 mi WNW 8.1 mph - N/A   Clear
11:15 PM 21.2 °F 7.8 °F -0.4 °F 39% 30.46 in 10.0 mi NW 15.0 mph - N/A   Clear
11:35 PM 19.4 °F 6.0 °F -0.4 °F 42% 30.46 in 10.0 mi NW 13.8 mph 20.7 mph N/A   Clear
11:55 PM 19.4 °F 6.0 °F -0.4 °F 42% 30.47 in 10.0 mi NW 13.8 mph 18.4 mph N/A   Clear